Wind_Speed
7 7 7 7 8 8 9 8 8 8 9 9 9 9 9 9 9 9 8 8 8 8 8 7 7 6 5 5 5 5 5 5 4 4 5 5 5 5 5 5 6 6 6 6 6 6 6 6 6 6 6 7 7 7 8 8 9 9 9 9 10 9 9 9 8 8 7 7 6
7 8 8 7 8 8 8 8 8 8 8 9 9 9 9 9 9 9 9 9 8 8 8 7 7 6 6 5 5 4 4 5 5 5 5 6 5 5 5 5 5 6 6 6 6 6 6 6 7 7 8 8 8 9 9 9 9 9 9 9 9 9 9 9 9 9 8 8 8
7 8 8 8 8 8 8 9 9 9 9 9 9 9 9 9 9 9 9 9 8 7 7 7 6 5 5 4 4 4 4 4 5 5 5 5 5 5 5 5 5 6 6 6 6 6 7 7 8 9 10 10 11 11 12 11 10 10 10 10 10 10 10 11 11 11 11 11 11
7 8 8 8 8 9 9 9 9 9 10 10 9 9 9 9 9 9 9 8 7 7 6 5 5 4 3 3 3 3 4 4 5 5 5 5 5 5 5 6 6 6 6 6 6 7 8 9 10 11 12 13 13 13 13 13 12 11 11 11 11 12 12 13 14 14 14 14 14
8 8 9 9 9 9 9 9 10 10 10 10 10 10 10 10 9 9 8 8 7 7 6 5 4 4 3 3 3 4 4 4 5 5 5 5 5 5 6 6 6 6 6 7 7 8 9 10 11 12 13 14 14 14 13 13 12 12 12 12 13 14 14 15 16 16 16 15 15
8 8 9 9 9 10 10 10 11 11 11 11 11 11 10 10 10 9 9 8 7 6 6 5 5 4 4 4 4 4 5 5 5 5 5 5 6 6 6 7 7 7 8 8 9 10 10 11 12 13 14 14 14 14 13 12 12 12 13 14 15 15 16 17 17 16 16 15 14
8 8 9 9 9 10 11 11 11 11 11 11 11 10 10 9 9 9 8 8 7 6 6 6 5 5 5 5 5 5 5 5 5 5 6 6 6 7 7 8 8 9 9 10 10 11 11 12 13 14 14 14 14 14 13 12 12 13 14 15 16 17 17 18 17 16 15 14 14
8 8 8 9 9 10 10 11 11 11 10 10 9 9 9 8 8 8 8 7 7 6 6 6 5 5 5 5 6 6 6 6 6 6 6 6 7 7 8 9 9 10 10 11 11 11 12 12 13 14 14 14 14 14 14 13 13 14 15 16 17 18 18 18 18 17 16 15 15
8 8 8 8 9 9 9 9 9 9 9 9 8 8 7 7 7 7 7 7 7 6 6 6 6 5 5 6 6 6 6 7 7 7 6 6 7 8 9 9 10 11 11 11 12 12 12 12 13 14 14 14 14 14 14 14 15 15 16 17 17 18 18 18 18 17 16 16 16
9 9 9 9 9 9 9 8 8 8 8 8 7 7 6 6 6 6 7 6 6 6 6 6 6 6 6 7 7 7 7 7 7 7 7 7 7 8 9 10 11 11 11 11 12 12 12 12 13 14 14 14 15 15 15 15 15 16 17 17 18 18 17 17 17 17 16 16 16
9 10 10 10 10 9 9 8 8 7 7 7 7 6 6 5 5 5 5 6 6 6 6 6 6 7 7 8 8 8 7 7 8 8 8 8 8 8 9 10 11 11 11 11 11 11 12 12 13 13 14 14 14 15 15 15 16 17 17 17 17 17 17 17 17 17 16 16 16
10 11 11 11 10 10 9 8 8 8 7 7 6 6 5 5 4 4 5 5 5 5 5 5 6 6 7 8 8 8 8 8 8 8 8 8 8 9 9 10 10 11 11 10 11 11 12 13 13 14 14 14 15 15 15 15 16 17 17 17 17 17 17 17 17 17 16 16 16
10 11 11 11 11 10 9 9 8 8 7 7 6 5 5 4 4 4 4 5 5 4 4 4 4 5 6 7 8 8 9 9 9 9 9 9 9 9 9 10 10 11 11 11 11 12 13 14 14 15 15 15 15 15 15 15 16 17 18 18 18 18 18 18 17 17 17 16 17
10 11 11 12 11 10 10 9 9 8 8 7 6 5 5 5 5 4 4 4 4 4 4 4 4 4 5 5 6 7 8 9 10 10 10 10 10 10 10 10 11 11 11 12 12 13 14 15 15 15 16 16 16 16 16 16 16 17 18 18 18 19 18 18 17 17 17 17 17
11 11 11 11 11 11 10 10 9 9 8 8 7 7 6 6 6 5 5 4 4 4 4 4 4 4 4 4 5 6 7 8 9 10 11 11 11 11 11 11 12 12 13 13 13 14 15 15 16 16 16 16 17 17 17 17 17 17 18 18 18 19 19 18 17 17 17 17 18
11 11 11 11 11 11 10 10 10 9 9 9 8 8 8 8 7 6 5 5 5 4 4 4 4 4 4 4 5 6 6 7 8 9 10 11 11 11 12 12 13 14 14 15 15 15 15 16 16 16 17 17 17 17 17 17 17 17 17 18 18 18 18 17 17 17 17 17 18
12 12 11 11 11 11 10 10 10 10 9 9 9 9 9 8 8 7 6 5 5 5 5 4 4 5 6 6 6 6 6 7 7 8 10 11 12 12 13 13 14 14 15 15 16 16 16 16 16 16 17 17 18 18 18 18 18 18 17 17 17 17 17 16 16 16 17 17 18
12 12 11 11 11 11 10 10 10 10 10 10 10 10 9 9 8 7 6 5 4 4 5 5 5 5 6 7 7 7 7 7 8 8 10 11 13 14 14 15 15 15 15 15 16 16 16 16 16 16 17 17 18 18 18 18 18 17 17 17 16 16 16 15 15 16 16 17 17
12 12 11 11 10 10 10 10 10 10 10 10 10 11 10 10 9 7 6 5 4 3 4 5 6 6 7 8 8 8 8 8 8 8 9 11 12 13 14 15 15 15 15 16 16 16 16 16 16 16 17 17 17 18 18 18 18 18 17 16 16 16 15 15 15 15 16 16 16
12 12 12 11 10 10 10 10 10 10 10 11 11 11 12 11 9 7 6 5 4 3 4 5 7 7 8 8 8 8 8 7 7 8 9 10 11 13 14 14 15 15 16 16 16 16 16 17 17 17 17 18 18 18 19 19 19 18 18 17 17 17 16 16 16 16 16 16 16
13 12 12 11 11 10 10 10 10 11 11 11 11 12 12 12 10 8 6 5 5 5 6 7 8 9 10 9 9 9 8 8 7 8 8 9 10 11 12 13 14 15 15 16 16 16 17 17 17 17 18 18 19 19 19 19 19 19 19 19 19 19 19 18 18 17 17 16 15
13 13 12 12 12 11 11 11 11 11 11 11 11 12 12 12 11 9 7 6 6 7 8 9 10 11 11 11 11 11 10 9 8 8 8 8 9 10 11 12 13 14 15 15 16 16 16 16 16 17 17 18 19 19 19 19 20 20 20 21 21 21 21 21 20 19 18 17 16
13 13 12 12 12 12 12 12 12 11 11 11 12 12 13 12 11 10 8 8 8 9 10 11 11 12 12 12 12 12 12 11 10 9 9 9 9 9 10 11 12 13 14 15 15 15 15 16 16 16 16 17 18 18 19 19 20 20 21 21 22 22 22 21 21 20 19 19 18
14 13 13 12 13 13 13 13 12 12 12 12 12 13 13 13 12 10 10 9 9 10 10 11 11 12 12 12 12 12 12 12 12 11 10 10 10 10 10 11 11 12 12 13 13 13 14 14 15 15 15 16 17 18 18 19 19 20 20 21 21 21 21 20 20 19 19 18 18
14 14 13 13 13 13 13 13 13 13 13 13 13 13 13 13 12 11 10 10 10 10 10 10 11 11 11 11 11 11 11 12 12 12 12 11 11 11 12 12 12 12 12 12 12 12 12 12 13 14 15 16 17 18 18 18 19 19 20 20 20 20 20 19 19 18 18 18 17
15 14 14 13 13 14 14 14 14 14 14 14 14 13 13 13 12 11 11 11 10 10 10 10 10 11 11 11 11 10 10 11 11 12 12 13 13 13 13 14 14 13 13 13 12 12 12 12 13 14 16 17 18 19 19 19 18 18 19 19 19 19 19 19 18 17 17 17 17
16 16 15 14 14 14 15 15 15 15 15 15 14 14 13 13 12 12 11 11 11 10 10 10 10 11 11 10 10 10 9 9 10 11 12 13 13 14 14 14 14 13 13 12 12 12 12 13 14 15 16 18 19 19 19 19 18 18 18 18 18 18 18 18 17 17 16 16 17
18 17 16 16 15 15 15 16 16 16 16 15 15 14 14 13 13 13 12 12 12 11 10 10 11 11 11 10 10 9 8 8 9 10 12 13 14 14 14 13 13 12 12 12 12 12 12 12 13 14 15 16 17 18 18 17 17 17 17 17 17 17 16 16 16 16 16 16 16
19 18 18 17 17 17 16 16 17 16 16 16 15 15 14 14 14 13 13 13 13 12 12 11 12 12 12 11 10 9 8 7 8 10 12 14 14 13 13 12 12 11 11 11 12 12 12 12 12 12 13 14 15 15 15 15 16 15 15 15 15 15 15 15 15 15 15 15 15
19 19 19 19 18 18 17 17 17 17 16 16 15 15 15 14 14 14 14 14 14 13 13 12 13 13 12 11 10 9 8 7 7 10 12 14 14 13 13 12 11 11 11 11 12 12 12 12 12 12 12 13 13 14 14 14 14 14 14 14 13 13 13 13 13 13 14 14 14
20 20 20 20 19 19 19 18 17 17 17 16 16 15 15 15 15 15 15 15 14 14 13 13 13 13 13 12 11 9 8 7 8 10 12 13 14 13 12 12 12 11 12 12 12 13 13 13 13 13 13 13 13 13 13 13 13 13 13 12 12 12 12 12 12 13 13 13 13
21 21 21 21 21 20 19 19 18 18 17 17 16 16 16 16 16 16 15 15 15 14 14 14 13 13 13 12 11 10 9 8 9 10 11 12 12 12 12 12 12 12 12 12 13 13 13 13 13 13 14 14 14 14 13 13 13 12 12 11 11 11 11 11 11 12 12 12 12
21 21 22 22 22 21 20 20 19 19 18 18 17 17 17 17 16 16 16 15 15 15 14 14 14 13 13 13 12 11 10 10 10 10 11 12 12 12 12 12 12 12 13 13 13 13 13 13 13 14 15 15 15 14 14 14 13 13 12 12 11 10 10 10 10 10 11 11 11
22 22 22 22 22 22 21 21 20 20 19 19 19 18 18 18 17 17 16 16 15 15 15 14 14 14 13 13 13 12 11 11 11 11 11 11 11 12 12 12 12 12 12 13 13 14 14 14 14 14 15 16 16 15 15 15 14 14 14 13 12 11 10 10 10 10 10 10 10
23 23 23 23 23 23 22 22 22 21 21 20 20 20 19 19 19 18 17 17 16 15 15 15 14 14 13 13 13 12 12 12 11 11 11 11 12 12 12 12 12 12 12 13 13 14 14 14 14 14 16 17 17 16 16 16 15 15 15 14 14 13 12 11 10 10 9 9 10
24 24 24 24 24 24 23 23 23 22 22 22 21 21 21 20 20 19 18 18 17 16 16 15 15 14 14 14 14 13 13 13 12 12 11 12 12 12 12 12 12 12 12 13 13 14 14 14 14 14 16 17 17 17 16 16 16 16 15 15 15 14 13 12 11 10 9 9 9
24 25 25 25 25 24 24 24 23 23 23 23 23 22 22 21 21 20 20 19 18 18 17 17 16 16 16 15 15 15 14 14 13 12 12 12 12 12 12 12 12 12 12 13 13 14 14 14 14 14 15 16 17 17 17 17 16 16 16 16 15 15 14 13 11 10 9 9 9
25 25 25 26 26 25 25 24 24 24 24 24 24 23 23 22 22 22 21 21 20 19 18 18 18 18 17 16 16 15 15 14 14 13 13 13 12 12 12 12 12 12 12 13 13 14 14 14 14 14 14 15 16 17 17 17 17 17 17 17 16 15 14 13 12 11 10 9 9
25 25 26 26 26 26 25 25 25 25 25 24 24 24 24 23 23 23 22 22 21 20 19 18 18 18 18 17 17 16 16 16 15 14 13 13 13 13 12 12 12 12 12 13 13 14 14 14 13 13 13 14 15 16 16 17 17 18 18 17 17 16 15 14 13 12 11 10 9
25 26 26 27 27 26 26 25 25 25 24 24 24 24 24 24 24 23 23 23 22 21 20 19 18 17 18 18 18 17 17 17 16 15 14 13 13 13 13 13 12 12 12 12 13 13 14 14 13 13 12 13 14 15 16 16 17 18 18 17 17 17 16 15 14 14 13 12 10
25 26 27 27 27 27 26 26 25 24 24 24 24 24 24 24 24 23 23 23 23 22 21 20 18 17 17 18 18 18 18 18 17 15 14 13 13 13 13 13 13 13 12 12 13 13 14 14 14 13 12 13 14 15 15 16 17 17 18 17 17 17 17 16 15 15 14 13 12
Wind_Direction
157 157 158 157 156 155 154 154 156 158 159 158 154 154 155 154 147 144 143 141 135 130 127 125 123 123 123 122 123 127 134 145 158 171 182 189 192 197 202 206 208 207 204 203 203 202 202 203 199 190 182 177 172 166 159 152 150 152 152 147 142 143 145 144 145 149 151 149 146
152 155 157 158 160 161 159 157 159 162 163 164 162 160 159 158 152 149 147 145 142 138 135 132 130 131 132 132 133 138 146 154 161 168 172 175 181 188 193 196 197 195 190 188 190 192 193 192 190 183 175 172 171 168 164 161 160 161 159 152 149 148 146 141 142 147 148 144 142
150 153 157 160 164 165 163 160 162 164 165 165 165 164 164 162 159 155 152 150 150 148 145 140 138 138 138 139 146 153 160 164 168 171 173 174 177 181 184 184 182 181 179 179 179 180 181 178 175 169 165 163 164 163 161 160 162 162 159 154 154 151 145 138 139 141 141 137 136
147 148 151 155 159 162 163 163 164 164 165 165 166 166 166 165 163 160 158 158 159 158 156 154 154 155 160 166 173 174 175 175 176 177 178 179 179 179 178 178 177 176 175 175 174 174 172 169 164 159 157 158 158 157 156 157 160 160 158 154 152 148 142 138 136 135 133 131 131
146 147 149 152 155 158 161 162 161 161 162 164 165 164 164 164 164 164 164 164 163 163 165 170 175 181 188 192 192 189 186 185 182 182 183 183 182 181 179 180 179 178 176 173 171 170 167 163 157 154 152 153 154 154 154 156 159 158 155 151 149 146 143 138 135 133 132 130 130
147 148 150 151 153 154 155 157 158 158 160 163 164 163 162 163 164 165 167 167 168 170 174 180 185 187 188 188 189 189 188 188 187 187 187 187 186 184 183 182 181 178 174 171 169 167 164 161 154 151 150 150 150 150 153 157 159 157 152 148 147 145 143 140 138 137 136 134 132
148 148 149 151 153 153 153 155 156 157 159 162 163 163 162 164 166 169 171 175 177 179 182 186 188 189 187 187 187 188 188 189 189 189 190 190 188 185 181 178 178 175 171 169 167 165 163 160 154 150 148 149 148 150 153 158 159 157 151 146 145 145 143 142 142 142 141 140 139
149 149 150 152 154 155 155 156 157 157 158 160 161 162 163 167 170 173 177 180 181 185 190 193 193 194 193 192 191 190 190 191 192 193 193 192 187 181 176 175 174 173 171 169 167 166 165 163 156 151 149 149 148 149 151 155 157 155 150 145 143 143 143 142 143 145 146 146 145
148 149 151 153 155 157 158 159 160 159 158 157 159 162 166 171 176 180 181 181 184 189 194 196 198 199 199 198 198 196 196 197 197 197 196 193 186 178 172 171 172 171 170 170 168 168 168 166 159 154 152 151 148 148 149 153 153 151 148 144 142 141 142 143 144 146 148 149 146
150 151 152 154 156 159 161 161 163 163 161 158 159 162 167 173 181 185 186 187 191 194 197 199 201 203 202 201 200 199 199 200 201 199 197 193 186 177 171 169 170 169 168 168 168 170 170 167 159 155 153 152 149 147 148 151 150 147 144 142 140 139 139 141 143 145 146 146 143
154 154 155 156 158 161 163 162 163 164 163 160 160 163 166 171 179 185 191 197 198 199 200 205 208 208 207 205 202 198 197 198 199 198 193 189 185 179 174 171 170 169 168 168 169 169 168 164 157 153 151 151 149 147 147 148 147 143 140 139 139 138 137 137 140 141 141 141 140
156 157 158 159 161 163 164 162 162 163 163 163 163 165 167 172 178 186 194 199 200 199 202 208 212 212 210 207 203 198 195 193 194 193 189 184 183 181 178 174 172 172 172 171 171 168 164 159 156 152 150 148 147 146 146 146 144 140 138 138 139 138 137 137 138 138 139 140 138
158 158 160 160 162 163 163 162 162 163 164 164 166 167 169 170 177 185 191 193 196 195 195 200 207 209 207 204 200 195 191 188 188 188 186 184 184 183 181 178 175 174 173 172 170 165 160 157 156 153 150 146 145 145 145 145 143 140 138 138 139 139 138 139 139 139 140 140 138
159 159 159 160 162 162 161 159 160 160 160 161 161 162 162 163 168 176 183 187 188 186 185 189 195 199 198 195 191 188 187 188 189 189 188 186 186 185 181 179 176 174 171 168 166 161 158 155 155 154 150 146 143 143 144 144 142 141 140 139 139 139 139 140 141 142 142 141 139
161 160 160 161 162 161 160 158 157 157 157 155 154 153 152 151 153 156 160 164 166 172 177 181 182 185 188 186 182 181 183 187 190 191 190 188 188 184 180 177 175 172 167 163 160 158 155 154 153 153 150 145 142 141 141 141 141 140 140 140 140 140 141 141 143 144 145 144 142
167 165 164 165 166 165 164 162 160 159 158 156 153 150 146 144 142 141 140 139 141 148 157 166 169 170 170 171 170 172 175 180 184 186 185 182 181 178 175 174 172 169 164 161 158 156 154 153 152 151 148 144 141 140 139 138 138 138 139 140 141 141 142 143 145 146 147 147 144
174 173 172 172 173 173 172 171 169 167 166 162 159 155 150 146 143 139 135 131 131 134 139 146 153 156 158 158 161 167 172 174 176 177 174 172 170 169 169 168 167 165 163 160 157 155 153 153 153 151 148 145 142 140 139 137 137 137 137 138 140 141 142 143 145 146 146 146 144
183 182 181 181 181 181 181 180 179 177 175 172 169 164 159 154 150 146 140 135 133 131 132 135 142 149 154 158 162 168 174 176 173 169 166 164 165 166 166 165 164 163 162 160 157 155 154 153 153 152 149 146 143 141 139 137 135 135 135 136 137 138 139 141 143 144 145 144 142
193 192 190 190 189 189 188 187 186 185 183 181 178 173 168 164 160 156 151 146 143 139 137 136 139 143 149 156 162 167 173 175 171 164 161 161 163 165 165 165 164 164 162 160 157 156 154 154 153 152 150 147 144 142 139 136 133 131 131 131 132 133 135 136 139 141 141 141 140
200 201 199 198 196 194 192 190 189 188 187 185 183 179 175 172 170 167 162 156 150 146 141 139 138 137 140 145 150 155 159 162 161 158 158 159 162 165 166 166 165 165 163 161 158 156 155 154 153 151 149 147 144 141 139 135 132 128 127 126 126 126 127 129 132 134 136 137 137
206 207 206 205 203 201 197 193 190 188 187 185 183 181 178 176 175 173 167 157 148 141 138 134 132 130 131 132 135 137 139 141 144 147 150 155 160 163 166 166 166 165 163 161 159 156 155 154 152 151 150 148 145 143 140 137 132 128 125 122 121 120 120 120 121 123 125 128 130
209 210 210 209 208 206 202 198 194 191 188 185 182 180 178 177 176 174 168 155 143 136 131 128 126 124 124 124 124 125 126 128 130 133 137 144 150 155 160 164 165 164 162 160 158 157 155 154 153 152 151 149 147 145 142 140 135 131 127 123 120 117 115 113 112 112 113 114 116
211 211 211 211 209 207 205 201 197 194 190 185 182 179 178 178 177 175 168 156 145 135 129 125 124 122 121 121 121 121 122 123 124 125 128 132 138 144 151 157 162 163 162 160 159 158 157 155 155 155 154 152 149 146 144 142 139 135 131 127 124 120 116 112 109 106 104 103 102
210 211 212 210 209 206 204 201 198 194 190 186 183 181 180 179 179 176 171 161 151 142 134 130 127 125 124 123 122 122 122 122 124 125 127 128 131 135 140 146 151 154 156 156 157 158 158 157 156 156 155 153 149 146 144 143 140 138 135 132 129 125 121 116 112 108 105 101 98
210 210 210 208 206 205 203 200 197 194 191 188 185 183 182 182 182 179 174 168 161 154 147 141 137 134 131 130 128 126 125 124 125 127 129 130 131 132 133 135 137 139 140 142 145 148 151 151 151 150 149 147 144 142 140 139 139 138 137 135 132 128 125 121 117 113 110 108 106
209 209 208 207 205 203 201 199 197 195 192 190 187 186 185 184 184 182 178 173 170 166 161 155 150 145 142 139 136 134 132 130 130 131 132 134 134 134 132 131 129 129 129 130 134 137 138 139 139 140 139 138 137 136 135 136 136 137 137 136 134 131 127 124 121 119 117 116 116
207 207 206 206 204 201 199 198 197 195 194 192 190 188 187 187 186 184 181 177 175 174 172 168 163 157 153 149 146 144 142 140 139 139 139 139 140 139 136 133 130 129 130 134 138 138 136 134 132 132 133 132 132 132 133 134 135 136 136 136 135 133 131 128 127 126 126 125 124
206 205 205 204 202 201 200 198 197 196 195 194 193 192 191 190 188 186 183 180 178 178 178 177 173 168 164 161 158 156 153 152 153 152 150 148 147 145 143 140 136 136 139 146 149 148 145 143 138 134 132 132 132 132 133 134 134 135 135 136 136 136 135 134 134 133 132 130 128
207 205 204 202 201 201 200 199 198 197 197 196 195 195 193 192 189 187 184 181 179 179 180 180 178 175 172 169 167 165 164 164 164 164 161 158 155 153 151 148 145 147 153 158 159 158 156 155 152 145 140 139 138 138 138 137 137 136 136 137 138 139 139 139 138 137 135 134 132
207 205 204 203 202 201 201 200 200 199 199 198 197 196 194 192 190 188 185 183 180 180 181 182 179 176 174 172 171 171 171 170 171 170 168 165 162 160 157 155 155 158 162 165 164 164 163 162 161 159 155 151 149 148 147 145 143 141 140 139 139 140 141 140 140 139 138 137 137
208 206 205 204 203 203 202 202 201 200 199 198 197 196 194 192 189 187 185 183 181 180 180 181 180 177 175 174 173 174 173 172 171 169 169 167 165 163 161 160 162 165 167 169 168 166 165 164 164 167 167 163 160 158 157 154 152 149 147 145 144 142 141 141 141 141 141 141 141
208 207 206 205 204 204 203 202 201 200 199 198 197 195 194 192 189 187 185 183 181 179 179 181 181 179 178 176 175 174 174 172 168 165 165 165 165 164 163 164 166 167 168 171 170 168 167 166 166 169 172 171 168 165 163 162 160 157 155 153 151 148 146 144 143 144 145 146 146
208 208 207 206 206 205 204 203 202 201 200 198 197 196 194 191 189 186 184 182 180 179 179 181 181 181 181 179 177 176 175 173 168 164 162 164 165 165 166 167 167 167 169 173 172 170 169 167 167 171 175 175 173 170 168 166 165 163 161 160 159 158 156 153 150 149 150 150 150
208 208 208 208 207 206 205 204 203 202 200 199 198 197 195 192 189 186 183 182 181 181 181 182 182 183 183 182 180 178 177 175 171 167 165 165 166 166 166 167 168 168 170 174 173 172 171 170 169 172 176 178 176 175 173 171 169 167 166 165 166 166 167 165 162 159 157 155 153
208 208 208 208 207 207 206 205 204 204 202 201 200 199 197 195 192 188 186 184 184 185 185 185 184 185 185 185 183 181 180 178 175 172 170 169 168 168 168 169 170 172 173 175 174 174 173 172 171 175 179 181 180 180 178 176 174 173 172 171 171 173 174 174 172 169 164 161 158
209 208 207 208 207 207 207 206 206 205 205 204 203 202 200 198 196 193 190 188 188 189 190 189 189 189 188 188 187 186 184 183 181 178 176 175 173 172 171 171 172 174 175 176 175 175 174 173 173 179 184 185 184 185 185 183 182 180 180 179 179 179 181 181 180 178 174 169 166
210 209 208 208 207 207 207 207 207 207 207 207 206 205 204 202 200 198 195 193 193 194 195 195 195 194 193 192 191 190 189 188 186 183 181 180 178 176 174 174 174 175 177 177 177 176 175 175 176 183 188 188 188 189 190 190 189 189 188 187 186 186 187 188 187 186 183 178 174
211 210 209 209 208 207 207 207 208 208 209 209 209 208 207 206 204 202 200 198 198 198 200 200 200 199 197 196 194 193 193 192 191 188 185 185 183 180 178 177 176 177 178 179 178 178 177 177 180 187 192 191 190 191 192 193 194 194 194 193 192 192 192 192 191 190 188 185 181
213 211 211 210 209 208 208 208 209 210 211 211 210 210 209 209 207 206 205 203 202 202 203 204 203 202 200 199 198 197 196 196 196 193 189 189 187 184 182 181 179 179 179 181 180 180 179 178 182 188 192 190 189 190 192 193 194 194 194 194 193 192 192 191 191 190 189 185 183
215 213 212 211 211 210 209 209 211 212 212 212 211 211 211 210 210 209 208 207 206 205 205 205 205 204 202 201 200 200 199 198 198 198 196 194 192 189 187 185 184 183 183 183 184 183 182 181 183 187 189 186 185 186 187 189 190 190 190 190 190 189 188 187 188 187 185 181 180
216 214 213 213 212 212 211 212 212 213 214 213 213 213 213 212 211 211 211 210 209 209 208 207 206 204 203 202 202 202 201 200 200 200 200 199 199 196 193 189 188 187 186 186 188 187 186 185 185 188 189 185 182 182 183 185 185 185 185 185 184 184 183 182 183 183 183 181 180
Height
804 803 803 803 803 802 802 803 803 803 803 803 804 804 804 804 804 805 805 805 805 805 804 804 804 804 804 804 805 806 806 807 807 808 808 808 808 808 808 807 807 806 806 806 806 807 807 807 808 808 808 809 809 809 810 810 810 810 810 811 811 811 811 811 811 811 811 811 811
803 803 803 803 802 802 802 803 803 803 803 804 804 804 804 804 804 805 805 805 804 804 804 804 804 804 804 805 805 806 807 807 808 808 808 808 808 808 808 807 807 807 806 806 807 807 807 807 808 808 808 809 809 809 810 810 811 811 811 811 811 811 811 811 811 811 811 811 810
803 803 802 802 802 802 803 803 803 803 803 804 804 804 804 804 805 805 805 804 804 804 804 804 804 804 805 805 806 806 807 808 808 808 808 808 808 808 808 807 807 807 806 806 807 807 807 807 808 808 808 809 809 809 810 810 811 811 811 811 811 811 811 811 811 810 810 810 810
803 803 803 803 803 803 803 803 803 803 804 804 804 804 804 804 805 805 804 804 804 804 804 804 805 805 805 806 806 807 807 808 808 808 808 808 808 808 808 807 807 807 807 807 807 807 807 808 808 808 808 809 809 809 809 810 810 810 810 811 811 811 810 810 810 810 810 810 810
803 803 803 803 803 803 803 803 804 804 804 804 804 804 804 805 805 805 804 804 804 804 804 805 805 805 805 806 806 807 807 808 808 808 808 808 808 808 808 807 807 807 807 807 807 807 808 808 808 808 808 808 809 809 809 809 810 810 810 810 810 810 810 810 810 810 810 810 810
803 803 803 803 804 804 804 804 804 804 804 804 804 804 804 805 805 804 804 804 804 804 805 805 805 805 805 806 806 807 807 808 808 808 808 808 808 807 807 807 807 807 807 807 807 807 808 808 808 808 808 808 808 809 809 809 809 809 809 810 810 810 810 809 809 809 809 810 810
804 804 804 804 804 804 804 804 804 804 804 804 804 804 804 805 805 805 804 804 805 805 805 805 805 805 805 806 806 806 807 808 808 808 808 808 807 807 807 807 807 807 807 807 807 807 808 808 808 808 808 808 808 808 809 809 809 809 809 809 809 809 809 809 809 809 810 810 810
804 804 804 804 804 804 804 804 804 804 804 805 805 805 805 805 805 805 805 805 805 805 805 805 805 805 805 805 806 806 807 807 808 808 808 808 807 807 807 807 807 807 807 807 807 807 807 808 807 808 808 808 808 808 808 809 809 809 809 809 809 809 809 809 809 809 810 810 810
804 804 804 804 804 804 804 804 804 804 805 805 805 805 805 805 805 805 805 805 805 805 805 805 805 805 805 805 806 806 806 807 807 808 808 808 807 807 807 807 807 807 807 807 807 807 807 807 807 808 808 808 808 808 808 809 808 808 808 809 809 809 809 809 809 810 810 810 810
805 805 804 804 804 804 804 804 804 805 805 805 805 805 805 805 805 805 805 805 805 805 805 805 805 805 805 805 806 806 806 807 807 807 808 808 808 808 808 808 808 808 808 807 807 807 807 807 808 808 808 808 808 808 809 809 809 808 808 809 809 809 809 810 810 810 810 810 810
806 805 805 805 805 805 805 805 805 805 805 805 805 805 805 805 805 805 805 805 805 805 805 805 805 805 805 805 806 806 806 807 807 807 808 808 808 808 808 808 808 808 808 808 808 807 807 808 808 808 808 809 809 809 809 809 809 809 809 809 809 810 810 810 810 811 811 811 811
806 806 806 805 805 805 805 805 805 805 805 805 805 805 805 805 805 805 805 805 805 805 805 805 805 805 805 805 806 806 806 807 807 808 808 808 808 808 808 808 808 808 808 808 808 808 808 808 808 809 809 809 809 809 809 809 809 809 809 809 810 810 810 811 811 811 811 811 812
806 806 806 806 806 806 806 806 806 806 806 806 806 806 806 805 805 805 805 805 805 805 805 805 805 805 805 806 806 806 806 807 807 808 808 808 808 808 808 808 808 808 808 809 808 808 808 808 809 809 809 809 809 809 810 810 810 809 810 810 810 810 810 811 811 811 812 812 812
807 807 806 806 806 806 806 806 806 806 806 806 806 806 806 806 806 806 806 806 806 806 806 805 805 806 806 806 806 806 806 807 807 807 808 808 808 808 808 808 808 809 809 809 809 809 808 809 809 809 809 809 809 810 810 810 810 810 810 810 810 810 811 811 812 812 812 812 812
807 807 807 807 807 807 807 807 807 807 807 807 807 807 807 807 807 807 806 806 806 806 806 806 806 806 806 806 806 806 807 807 807 807 808 808 808 808 808 808 808 809 809 809 809 809 809 809 809 810 810 810 810 810 810 810 811 811 811 811 811 811 811 812 812 812 813 813 813
807 807 807 807 807 807 807 807 807 807 807 807 807 807 807 807 807 807 807 807 807 807 807 806 806 807 807 807 807 807 807 807 807 807 808 808 808 808 808 808 809 809 809 809 809 809 809 810 810 810 810 810 810 811 811 811 811 811 811 811 811 811 812 812 813 813 813 813 814
807 807 807 807 807 807 807 807 807 807 807 807 807 807 807 807 807 807 807 807 807 807 807 807 807 807 807 807 807 807 807 807 807 807 808 808 808 808 808 808 809 809 809 809 809 810 810 810 810 811 811 811 811 811 811 811 811 812 812 812 812 812 813 813 814 814 814 814 814
807 807 807 807 807 807 807 807 807 807 807 807 808 808 808 808 808 808 808 808 807 807 807 807 807 807 807 807 807 807 807 807 807 808 808 808 808 808 808 808 809 809 809 810 810 810 810 810 811 811 811 811 811 811 812 812 812 812 813 813 813 813 814 814 814 815 815 815 815
807 807 807 807 807 807 807 807 807 807 807 808 808 808 808 808 808 808 808 808 808 808 807 807 807 807 807 807 807 808 808 808 808 808 808 808 808 808 808 808 809 809 810 810 810 810 811 811 811 811 811 811 811 812 812 813 813 813 814 814 814 814 815 815 815 816 816 816 816
806 807 807 807 807 807 807 807 807 807 807 808 808 808 808 808 808 808 808 808 808 808 808 807 807 807 807 807 807 808 808 808 808 808 808 808 808 808 809 809 809 809 810 810 810 810 811 811 811 811 811 811 812 812 813 813 814 814 814 814 815 815 815 816 816 816 817 817 817
806 806 807 807 807 807 808 808 808 808 808 808 808 808 808 808 808 808 808 808 808 808 808 807 807 807 807 808 808 808 808 808 808 808 808 808 809 809 809 809 809 810 810 810 810 811 811 811 811 811 811 812 812 812 813 813 814 814 815 815 815 816 816 816 817 817 817 818 818
806 806 806 807 807 807 808 808 808 808 808 808 808 808 808 808 809 809 809 809 809 808 808 808 808 808 808 808 808 808 808 808 808 808 808 809 809 809 809 809 810 810 810 810 811 811 811 811 811 811 812 812 812 813 813 814 814 815 815 816 816 816 817 817 817 818 818 818 819
805 806 806 806 807 807 807 807 808 808 808 808 808 808 808 809 809 809 809 809 809 809 809 808 808 808 809 809 809 809 809 809 809 809 809 809 809 809 809 810 810 810 810 811 811 811 811 811 812 812 812 812 812 813 813 814 814 815 815 816 816 816 817 817 818 818 819 819 819
805 805 806 806 806 807 807 807 807 808 808 808 808 808 808 809 809 809 809 809 809 809 809 809 809 809 809 809 809 809 809 809 809 809 809 809 809 810 810 810 810 811 811 811 811 811 811 812 812 812 812 813 813 813 814 814 815 815 815 816 816 817 817 818 818 819 819 819 819
804 805 805 806 806 806 807 807 807 807 808 808 808 808 808 809 809 809 809 809 809 809 809 809 809 810 810 810 810 810 810 809 809 809 809 810 810 810 810 811 811 811 811 812 812 812 812 812 812 812 813 813 814 814 814 815 815 816 816 816 817 817 817 818 818 819 819 819 820
804 804 805 805 806 806 806 807 807 807 807 808 808 808 808 808 809 809 809 809 809 809 809 809 810 810 810 810 810 810 810 810 810 810 810 810 810 811 811 811 811 812 812 812 813 813 813 814 814 814 814 814 814 815 815 816 816 816 817 817 817 817 818 818 819 819 819 819 819
803 804 804 805 805 806 806 806 807 807 807 808 808 808 808 808 808 808 809 809 809 809 809 810 810 810 810 810 810 810 810 810 810 810 810 811 811 811 811 812 812 812 813 813 814 814 814 814 815 815 815 815 815 816 816 816 817 817 818 818 818 818 818 818 819 819 819 820 820
802 803 803 804 805 805 806 806 806 807 807 807 808 808 808 808 808 808 808 809 809 809 809 810 810 810 810 810 810 810 810 810 810 810 811 811 811 812 812 812 812 813 813 814 815 815 815 816 816 816 816 816 816 816 817 817 817 818 818 819 819 819 819 819 819 819 820 820 820
801 802 803 803 804 805 805 806 806 806 807 807 807 808 808 808 808 808 808 809 809 809 809 810 810 810 810 810 810 810 810 810 810 811 811 811 812 812 812 813 813 813 814 815 815 816 816 816 816 817 817 817 817 817 817 818 818 818 819 819 819 819 819 820 820 820 820 820 821
800 801 801 802 803 804 804 805 806 806 806 807 807 807 808 808 808 808 808 808 809 809 809 810 810 810 810 810 810 810 810 810 810 811 811 811 812 812 813 813 813 814 815 815 816 816 816 817 817 817 817 817 818 818 818 818 819 819 819 819 820 820 820 820 820 821 821 821 821
799 800 801 801 802 803 804 804 805 806 806 806 807 807 807 807 808 808 808 808 809 809 809 810 810 810 810 810 810 810 810 810 810 811 811 811 812 812 813 813 813 814 815 816 816 816 817 817 817 817 818 818 818 818 818 819 819 819 819 820 820 820 821 821 821 821 821 822 822
798 799 800 800 801 802 803 804 805 805 806 806 806 807 807 807 807 808 808 808 808 809 809 810 810 810 810 810 810 811 811 811 811 811 811 812 812 813 813 813 814 814 815 816 816 817 817 817 818 818 818 818 818 818 819 819 819 819 820 820 820 821 821 821 821 822 822 823 823
797 798 799 799 800 801 802 803 804 805 805 806 806 806 807 807 807 807 808 808 808 809 809 809 810 810 810 810 810 811 811 811 811 811 812 812 812 813 813 813 814 814 815 816 816 817 817 818 818 818 818 818 818 818 819 819 819 820 820 821 821 821 821 822 822 823 823 823 824
796 797 798 798 799 800 801 802 803 804 805 805 806 806 806 807 807 807 807 808 808 808 809 809 810 810 810 810 810 811 811 811 811 812 812 812 813 813 813 814 814 815 815 816 816 817 817 818 818 818 817 818 818 818 819 819 819 820 820 821 821 822 822 822 823 823 823 824 824
795 796 796 797 798 799 800 801 802 803 804 804 805 806 806 806 807 807 807 807 808 808 809 809 809 810 810 810 811 811 811 811 812 812 812 813 813 813 814 814 814 815 815 816 816 817 817 817 818 817 817 817 818 818 819 819 820 820 821 821 822 822 822 823 823 823 824 824 824
794 794 795 796 797 798 799 800 801 802 803 803 804 805 805 806 806 806 807 807 808 808 808 809 809 809 810 810 811 811 811 811 812 812 812 813 813 813 814 814 814 815 815 816 816 817 817 817 817 817 817 817 818 818 819 819 820 820 821 821 822 822 823 823 823 823 824 824 824
792 793 794 795 796 797 798 799 800 801 801 802 803 804 804 805 806 806 806 807 807 807 808 808 809 809 809 810 810 811 811 811 812 812 812 813 813 813 814 814 814 815 815 816 816 817 817 817 817 817 817 817 818 818 819 819 820 821 821 822 822 823 823 823 823 823 824 824 824
791 792 793 793 794 795 796 797 798 799 800 801 802 803 804 804 805 806 806 806 807 807 807 808 808 808 809 809 810 811 811 811 812 812 812 813 813 813 814 814 814 815 815 816 816 816 817 817 817 817 816 817 817 818 818 819 820 821 821 822 822 822 823 823 823 823 824 824 824
790 791 791 792 793 794 795 796 797 798 799 800 801 802 803 804 804 805 805 806 806 806 807 807 808 808 809 809 810 810 811 811 812 812 812 813 813 813 814 814 814 815 815 816 816 816 817 817 817 817 817 817 817 818 818 819 820 820 821 821 822 822 822 823 823 823 823 824 824
789 789 790 791 792 793 794 794 795 796 797 799 800 801 801 802 803 804 805 805 806 806 807 807 808 808 808 809 809 810 810 811 811 812 812 812 813 813 814 814 814 814 815 815 816 816 817 817 817 817 817 817 817 818 818 819 819 820 821 821 821 822 822 822 822 823 823 824 824
787 788 789 790 791 791 792 793 794 795 796 797 798 799 800 801 803 803 804 805 805 806 806 807 808 808 808 809 809 809 810 810 811 811 812 812 813 813 813 814 814 814 815 815 816 816 816 817 817 817 817 817 817 818 818 819 819 820 820 821 821 821 821 821 822 822 823 823 824